STARLINK-32361, 61933

Orbit data source: Space-Track

STARLINK-32361, 61933 is a payload satellite owned by SpaceX/Seattle (US) in LEO that was launched on Mon, 11 Nov 2024 UTC via an FALCON 9 launch vehicle from the Air Force Eastern Test Range (AFETR). Payload-class satellites include a variety of spacecraft equipped with specific instruments for various scientific and technological missions. These include communications satellites like Starlink; space stations such as the ISS; scientific satellites like the Hubble; Earth observation satellites from companies like Planet Labs, Umbra, and HawkEye 360; GPS; miniature CubeSats for education and research; and military/defense satellites.

Loading next visibility...
Identifier
61933, 2024-207X
Orbit
LEO
Country
Flag of USUS
Related business
Manufacturer
SpaceX/Seattle
Mission
Operational Commercial Communications
Bus & Motor
STARLINK V2M, Unknown motor
Mass
730 kg wet, ~700 kg dry
Launch date (UTC)
2024-11-11 (2 years ago)
Launch vehicle
FALCON 9
Launch site
Air Force Eastern Test Range (AFETR)
Object type
Payload
Rocket body
Debris
Shape & HBR
Box + 2 Pan, 17.7 m
Radar Cross Section
33.884 m², Large (>1 m²)

Expand to show TLE details & history
Last TLE update: 17 hours ago

TLE from 17 hours ago
0 STARLINK-32361
1 61933U 24207X   26145.22798162  .00017817  00000-0  65512-3 0  9998
2 61933  43.0021 209.8186 0001140 278.6257  81.4466 15.27594822 86425
Epoch: 2026-05-25T05:28Z
TLE epoch observation values (Epoch: 2026-05-25T05:28:17.611Z)
Latitude
-0°
Longitude
-115.07357°
Altitude
482.664 km
Speed
7.626 km/s
True Right ascension
13h 59m 16s
True Declination
0° 00' 00"
Sunlit
Object was in full shadow at epoch
Visualization orbit readout
Latitude
Unknown
Longitude
Unknown
Altitude
Unknown
Speed
Unknown
Apparent Right ascension
Unknown
Apparent Declination
Unknown
Sunlit
N/A
Visualization observer readout
Local Sidereal Time
07:16:02
Azimuth
Unknown
Elevation
Unknown
Doppler factor
Unknown
Orbital elements
Apogee altitude
485.732 km
Perigee altitude
484.167 km
Semi-major axis
6,863.087 km
Eccentricity
0.00011
Inclination
43.0021°
RAAN
209.8186°
Arg. of periapsis
278.6257°
True anomaly
81.45952°
Mean anomaly
81.4466°
Eccentric anomaly
81.45306°
Mean motion
3.81737 °/min
Orbital period
94.31 mins
BSTAR
0.00065512
Loading maneuver chart data...
Computing Atmospheric mass density...
Loading historical data...
Loading historical data...
Loading historical data...
Loading historical data...
Loading historical data...
Loading historical data...
Loading historical data...

Documentation

Showing up to 5 results
|